Regional Weather Roundup
Issued by NWS

Home | Current Version | Previous Version | Text Only | Print | Product List | Glossary On
Versions: 1 2 3 4 5 6 7 8 9 10 11 12 13 14 15 16 17 18 19 20 21 22 23 24 25 26 27 28 29 30 31 32 33 34 35 36 37 38 39 40 41 42 43 44 45 46 47 48 49 50
000
ASUS45 KBOI 270610
RWRID
WEATHER ROUNDUP FOR IDAHO
NATIONAL WEATHER SERVICE BOISE ID
1200 AM MDT MON APR 27 2015

NOTE: "FAIR" INDICATES FEW OR NO CLOUDS BELOW 12000 FEET
WITH NO SIGNIFICANT WEATHER AND/OR OBSTRUCTIONS TO VISIBILITY

IDZ012-014-270700-
SOUTHWEST IDAHO


CITY           SKY/WX    TMP DP  RH WIND       PRES   REMARKS
BOISE          CLEAR     49  24  37 W5        30.21R
CALDWELL       CLEAR     45  25  45 W6        30.24R
MOUNTAIN HOME  CLEAR     40  19  41 NW9       30.19S WCI  35
$$

IDZ016-017-270700-
SOUTHCENTRAL IDAHO


CITY           SKY/WX    TMP DP  RH WIND       PRES   REMARKS
BURLEY         MOCLDY    41  19  41 SW12      30.18R
JEROME         CLEAR     41  19  41 SW8       30.18R
TWIN FALLS     CLEAR     41  16  36 S18       30.19R
$$

IDZ019>023-270700-
SOUTHEAST IDAHO


CITY           SKY/WX    TMP DP  RH WIND       PRES   REMARKS
IDAHO FALLS    CLOUDY    39  32  76 N7        30.19R WCI  34
POCATELLO      LGT RAIN  46  41  82 W7        30.19R
REXBURG        CLOUDY    41  39  93 CALM      30.19R
$$

IDZ006-010-011-018-031-032-270700-
CENTRAL IDAHO MOUNTAINS


CITY           SKY/WX    TMP DP  RH WIND       PRES   REMARKS
MCCALL         CLEAR     36  24  62 N9        30.25S WCI  29
HAILEY         PTCLDY    41  28  60 N6        30.20S
STANLEY          N/A     25  17  72 CALM      30.26R
SALMON         CLOUDY    41  30  65 CALM      30.25S
CHALLIS        CLOUDY    39  24  55 CALM      30.24S
$$

IDZ002-004-006-007-026-270700-
NORTHERN IDAHO


CITY           SKY/WX    TMP DP  RH WIND       PRES   REMARKS
LEWISTON       PTCLDY    48  27  44 SW5       30.27R
LOWELL           N/A     40  36  86 N3        30.34R
COEUR D`ALENE  CLEAR     41  36  81 SE3       30.27S
MULLAN PASS    CLEAR     31  20  63 VRB5      30.24S WCI  26
$$


USA.gov is the U.S. government's official web portal to all federal, state and local government web resources and services.